Airfield :
LOGIN :

Register | Disclaimer

   EN    FR    IT 

 










Legend :    VFR   Marginal VFR   IFR   Intensive IFR   Very Intensive IFR
Visi :
Ceiling :
>= 8 km
>= 3000ft
5 to 8 km
1000 to 3000 ft
1500m to 5 km
500 to 1000 ft
800 to 1500m
200 to 500 ft
< 800m
< 200 ft
Symbols :   Thunderstorms  Fog  Heavy snow  Heavy precipitations  Wind > 20 kt
SIGMETs :     Misc.  Thunderstorms  Icing  Turbulence  Mountain Waves  Volcanic Ashes






- Airport Elevation : 699 ft
- IATA code : PAD


EDLP - Paderborn Lippstadt

CURRENT METAR :
  • 121720Z 03005KT 350V060 CAVOK 14/08 Q1010

EXPIRED METARs :
  • 121650Z 02004KT 340V060 CAVOK 14/07 Q1010
  • 121620Z 32004KT 220V020 9999 FEW049 14/07 Q1010
  • 121550Z 29005KT 250V330 9999 FEW039 14/08 Q1011
  • 121520Z 29007KT 240V340 9999 FEW039 14/08 Q1011
  • 121450Z 28005KT 230V320 9999 SCT040 15/06 Q1010

TAF TAF EDLP
Valid from the 12 at 18:00 until the 13 at 18:00 UTC


121700Z 1218/1318 VRB03KT 9999 SCT030
PROB30
TEMPO 1303/1308 3000 -RA BR



MET'MAP, your aeronautical weather chart ! - Copyright ORBIFLY December 2007 - Disclaimer

ORBIFLY MET'MAP TEAM :

Programming & Development : Alexandra Zaïnal
Concept & original design : Baudouin d'Aumeries
Assistance for programming : Marc-Olivier Méhu
Technical & hardware support : Manuel Goepfert

Contact : metmap@orbifly.com




SOURCES & CREDITS :

   NOAA